Time,TemperatureF,DewpointF,PressureIn,WindDirection,WindDirectionDegrees,WindSpeedMPH,WindSpeedGustMPH,Humidity,HourlyPrecipIn,Conditions,Clouds,dailyrainin,SolarRadiationWatts/m^2,SoftwareType,DateUTC
2013-01-11 00:00:00,37.0,35.0,-100.00,SSE,157,11.0,-999.0,90,0.06,,,-99.99,0.000000,,2013-01-11 05:00:00,
2013-01-11 00:33:00,37.0,35.0,-100.00,SSE,157,11.0,-999.0,90,0.06,,,-99.99,0.000000,,2013-01-11 05:33:00,
2013-01-11 00:43:00,37.0,35.0,-100.00,SSE,157,11.0,-999.0,90,0.06,,,-99.99,0.000000,,2013-01-11 05:43:00,
2013-01-11 00:53:00,37.0,35.0,-100.00,SSE,157,11.0,-999.0,90,0.06,,,-99.99,0.000000,,2013-01-11 05:53:00,
2013-01-11 01:00:00,38.0,36.0,-100.00,SW,225,11.0,-999.0,93,0.03,,,-99.99,0.000000,,2013-01-11 06:00:00,
2013-01-11 01:42:00,38.0,36.0,-100.00,SW,225,11.0,-999.0,93,0.03,,,-99.99,0.000000,,2013-01-11 06:42:00,
2013-01-11 01:52:00,38.0,36.0,-100.00,SW,225,11.0,-999.0,93,0.03,,,-99.99,0.000000,,2013-01-11 06:52:00,
2013-01-11 02:00:00,39.0,38.0,-100.00,WSW,247,10.0,-999.0,94,0.04,,,-99.99,0.000000,,2013-01-11 07:00:00,
2013-01-11 02:42:00,39.0,38.0,-100.00,WSW,247,10.0,-999.0,94,0.04,,,-99.99,0.000000,,2013-01-11 07:42:00,
2013-01-11 02:52:00,39.0,38.0,-100.00,WSW,247,10.0,-999.0,94,0.04,,,-99.99,0.000000,,2013-01-11 07:52:00,
2013-01-11 03:00:00,40.0,38.0,-100.00,West,270,10.0,-999.0,93,-99.99,,,-99.99,0.000000,,2013-01-11 08:00:00,
2013-01-11 03:42:00,40.0,38.0,-100.00,West,270,10.0,-999.0,93,-99.99,,,-99.99,0.000000,,2013-01-11 08:42:00,
2013-01-11 03:53:00,40.0,38.0,-100.00,West,270,10.0,-999.0,93,-99.99,,,-99.99,0.000000,,2013-01-11 08:53:00,
2013-01-11 04:00:00,41.0,39.0,-100.00,WNW,292,9.0,-999.0,92,0.02,,,-99.99,0.000000,,2013-01-11 09:00:00,
2013-01-11 04:42:00,41.0,39.0,-100.00,WNW,292,9.0,-999.0,92,0.02,,,-99.99,0.000000,,2013-01-11 09:42:00,
2013-01-11 04:52:00,41.0,39.0,-100.00,WNW,292,9.0,-999.0,92,0.02,,,-99.99,0.000000,,2013-01-11 09:52:00,
2013-01-11 05:00:00,42.0,40.0,-100.00,WNW,292,9.0,-999.0,93,0.12,,,-99.99,0.000000,,2013-01-11 10:00:00,
2013-01-11 05:43:00,42.0,40.0,-100.00,WNW,292,9.0,-999.0,93,0.12,,,-99.99,0.000000,,2013-01-11 10:43:00,
2013-01-11 05:52:00,42.0,40.0,-100.00,WNW,292,9.0,-999.0,93,0.12,,,-99.99,0.000000,,2013-01-11 10:52:00,
2013-01-11 06:00:00,44.0,43.0,-100.00,West,270,10.0,-999.0,94,0.02,,,-99.99,0.000000,,2013-01-11 11:00:00,
2013-01-11 06:43:00,44.0,43.0,-100.00,West,270,10.0,-999.0,94,0.02,,,-99.99,0.000000,,2013-01-11 11:43:00,
2013-01-11 06:53:00,44.0,43.0,-100.00,West,270,10.0,-999.0,94,0.02,,,-99.99,0.000000,,2013-01-11 11:53:00,
2013-01-11 07:00:00,46.0,45.0,-100.00,NNE,22,10.0,-999.0,94,-99.99,,,-99.99,0.000000,,2013-01-11 12:00:00,
2013-01-11 07:43:00,46.0,45.0,-100.00,NNE,22,10.0,-999.0,94,-99.99,,,-99.99,0.000000,,2013-01-11 12:43:00,
2013-01-11 07:53:00,46.0,45.0,-100.00,NNE,22,10.0,-999.0,94,-99.99,,,-99.99,0.000000,,2013-01-11 12:53:00,
2013-01-11 08:00:00,49.0,47.0,-100.00,ENE,67,9.0,-999.0,94,-99.99,,,-99.99,0.000000,,2013-01-11 13:00:00,
2013-01-11 08:43:00,49.0,47.0,-100.00,ENE,67,9.0,-999.0,94,-99.99,,,-99.99,0.000000,,2013-01-11 13:43:00,
2013-01-11 08:53:00,49.0,47.0,-100.00,ENE,67,9.0,-999.0,94,-99.99,,,-99.99,0.000000,,2013-01-11 13:53:00,
2013-01-11 09:00:00,51.0,49.0,-100.00,ENE,67,9.0,-999.0,93,-99.99,,,-99.99,2.320000,,2013-01-11 14:00:00,
2013-01-11 09:43:00,51.0,49.0,-100.00,ENE,67,9.0,-999.0,93,-99.99,,,-99.99,2.320000,,2013-01-11 14:43:00,
2013-01-11 09:53:00,51.0,49.0,-100.00,ENE,67,9.0,-999.0,93,-99.99,,,-99.99,2.320000,,2013-01-11 14:53:00,
2013-01-11 10:00:00,52.0,50.0,-100.00,SE,135,14.0,-999.0,91,-99.99,,,-99.99,22.040001,,2013-01-11 15:00:00,
2013-01-11 10:43:00,52.0,50.0,-100.00,SE,135,14.0,-999.0,91,-99.99,,,-99.99,22.040001,,2013-01-11 15:43:00,
2013-01-11 10:53:00,52.0,50.0,-100.00,SE,135,14.0,-999.0,91,-99.99,,,-99.99,22.040001,,2013-01-11 15:53:00,
2013-01-11 11:00:00,53.0,50.0,-100.00,SSW,202,11.0,-999.0,90,-99.99,,,-99.99,55.680000,,2013-01-11 16:00:00,
2013-01-11 11:43:00,53.0,50.0,-100.00,SSW,202,11.0,-999.0,90,-99.99,,,-99.99,55.680000,,2013-01-11 16:43:00,
2013-01-11 11:53:00,53.0,50.0,-100.00,SSW,202,11.0,-999.0,90,-99.99,,,-99.99,55.680000,,2013-01-11 16:53:00,
2013-01-11 12:00:00,53.0,49.0,-100.00,SW,225,13.0,-999.0,86,-99.99,,,-99.99,88.160004,,2013-01-11 17:00:00,
2013-01-11 12:43:00,53.0,49.0,-100.00,SW,225,13.0,-999.0,86,-99.99,,,-99.99,88.160004,,2013-01-11 17:43:00,
2013-01-11 12:53:00,53.0,49.0,-100.00,SW,225,13.0,-999.0,86,-99.99,,,-99.99,88.160004,,2013-01-11 17:53:00,
2013-01-11 13:00:00,52.0,48.0,-100.00,WSW,247,12.0,-999.0,86,-99.99,,,-99.99,124.120003,,2013-01-11 18:00:00,
2013-01-11 13:43:00,52.0,48.0,-100.00,WSW,247,12.0,-999.0,86,-99.99,,,-99.99,124.120003,,2013-01-11 18:43:00,
2013-01-11 13:53:00,52.0,48.0,-100.00,WSW,247,12.0,-999.0,86,-99.99,,,-99.99,124.120003,,2013-01-11 18:53:00,
2013-01-11 14:00:00,53.0,48.0,-100.00,East,90,10.0,-999.0,84,-99.99,,,-99.99,139.199997,,2013-01-11 19:00:00,
2013-01-11 14:43:00,53.0,48.0,-100.00,East,90,10.0,-999.0,84,-99.99,,,-99.99,139.199997,,2013-01-11 19:43:00,
2013-01-11 14:53:00,53.0,48.0,-100.00,East,90,10.0,-999.0,84,-99.99,,,-99.99,139.199997,,2013-01-11 19:53:00,
2013-01-11 15:00:00,50.0,47.0,-100.00,ESE,112,11.0,-999.0,86,-99.99,,,-99.99,51.040001,,2013-01-11 20:00:00,
2013-01-11 15:43:00,50.0,47.0,-100.00,ESE,112,11.0,-999.0,86,-99.99,,,-99.99,51.040001,,2013-01-11 20:43:00,
2013-01-11 15:53:00,50.0,47.0,-100.00,ESE,112,11.0,-999.0,86,-99.99,,,-99.99,51.040001,,2013-01-11 20:53:00,
2013-01-11 16:00:00,49.0,45.0,-100.00,SW,225,12.0,-999.0,86,-99.99,,,-99.99,44.080002,,2013-01-11 21:00:00,
2013-01-11 16:43:00,49.0,45.0,-100.00,SW,225,12.0,-999.0,86,-99.99,,,-99.99,44.080002,,2013-01-11 21:43:00,
2013-01-11 16:53:00,49.0,45.0,-100.00,SW,225,12.0,-999.0,86,-99.99,,,-99.99,44.080002,,2013-01-11 21:53:00,
2013-01-11 17:00:00,48.0,45.0,-100.00,WSW,247,9.0,-999.0,87,-99.99,,,-99.99,13.920000,,2013-01-11 22:00:00,
2013-01-11 17:42:00,48.0,45.0,-100.00,WSW,247,9.0,-999.0,87,-99.99,,,-99.99,13.920000,,2013-01-11 22:42:00,
2013-01-11 17:53:00,48.0,45.0,-100.00,WSW,247,9.0,-999.0,87,-99.99,,,-99.99,13.920000,,2013-01-11 22:53:00,
2013-01-11 18:00:00,49.0,44.0,-100.00,WSW,247,8.0,-999.0,85,-99.99,,,-99.99,5.800000,,2013-01-11 23:00:00,
2013-01-11 18:43:00,49.0,44.0,-100.00,WSW,247,8.0,-999.0,85,-99.99,,,-99.99,5.800000,,2013-01-11 23:43:00,
2013-01-11 18:53:00,49.0,44.0,-100.00,WSW,247,8.0,-999.0,85,-99.99,,,-99.99,5.800000,,2013-01-11 23:53:00,
2013-01-11 19:00:00,48.0,44.0,-100.00,WSW,247,6.0,-999.0,85,-99.99,,,-99.99,0.000000,,2013-01-12 00:00:00,
2013-01-11 19:43:00,48.0,44.0,-100.00,WSW,247,6.0,-999.0,85,-99.99,,,-99.99,0.000000,,2013-01-12 00:43:00,
2013-01-11 19:53:00,48.0,44.0,-100.00,WSW,247,6.0,-999.0,85,-99.99,,,-99.99,0.000000,,2013-01-12 00:53:00,
2013-01-11 20:00:00,48.0,44.0,-100.00,WSW,247,7.0,-999.0,86,-99.99,,,-99.99,0.000000,,2013-01-12 01:00:00,
2013-01-11 20:33:00,48.0,44.0,-100.00,WSW,247,7.0,-999.0,86,-99.99,,,-99.99,0.000000,,2013-01-12 01:33:00,
2013-01-11 20:43:00,48.0,44.0,-100.00,WSW,247,7.0,-999.0,86,-99.99,,,-99.99,0.000000,,2013-01-12 01:43:00,
2013-01-11 20:52:00,48.0,44.0,-100.00,WSW,247,7.0,-999.0,86,-99.99,,,-99.99,0.000000,,2013-01-12 01:52:00,
2013-01-11 21:00:00,50.0,45.0,-100.00,West,270,11.0,-999.0,82,-99.99,,,-99.99,0.000000,,2013-01-12 02:00:00,
2013-01-11 21:43:00,50.0,45.0,-100.00,West,270,11.0,-999.0,82,-99.99,,,-99.99,0.000000,,2013-01-12 02:43:00,
2013-01-11 21:53:00,50.0,45.0,-100.00,West,270,11.0,-999.0,82,-99.99,,,-99.99,0.000000,,2013-01-12 02:53:00,
2013-01-11 22:00:00,51.0,46.0,-100.00,West,270,10.0,-999.0,83,-99.99,,,-99.99,0.000000,,2013-01-12 03:00:00,
2013-01-11 22:33:00,51.0,46.0,-100.00,West,270,10.0,-999.0,83,-99.99,,,-99.99,0.000000,,2013-01-12 03:33:00,
2013-01-11 22:43:00,51.0,46.0,-100.00,West,270,10.0,-999.0,83,-99.99,,,-99.99,0.000000,,2013-01-12 03:43:00,
2013-01-11 22:53:00,51.0,46.0,-100.00,West,270,10.0,-999.0,83,-99.99,,,-99.99,0.000000,,2013-01-12 03:53:00,
2013-01-11 23:00:00,52.0,47.0,-100.00,WNW,292,13.0,-999.0,82,-99.99,,,-99.99,0.000000,,2013-01-12 04:00:00,
2013-01-11 23:33:00,52.0,47.0,-100.00,WNW,292,13.0,-999.0,82,-99.99,,,-99.99,0.000000,,2013-01-12 04:33:00,
2013-01-11 23:43:00,52.0,47.0,-100.00,WNW,292,13.0,-999.0,82,-99.99,,,-99.99,0.000000,,2013-01-12 04:43:00,
2013-01-11 23:52:00,52.0,47.0,-100.00,WNW,292,13.0,-999.0,82,-99.99,,,-99.99,0.000000,,2013-01-12 04:52:00,